Location: Baia de Cri?
(46.1667°N, 22.7167°E)
Time: 20:22:14
(UTC+00:00)

Tiangong - Pass Details

Date: 17 March 2026
Orbit: 375 x 384 km, 41.5° (Epoch: 21 April)

Event Time Altitude Azimuth Distance (km) Brightness Sun altitude
Exits shadow 02:08:27 13° 114° (ESE) 1,263 0.9 -25.9°
Drops below altitude 10° 02:08:54 10° 109° (ESE) 1,405 1.2 -25.8°
Sets 02:11:14 0° 94° (E) 2,264 2.7 -25.5°
